Flag for Austria Weather past 2 weeks in Eferding, Upper Austria, Austria

Now
72 °F

Scattered clouds.


Feels Like: 75 °F
Forecast: 56 / 78 °F
Wind: 6 mph from Southwest

Location: Linz / Hoersching-Flughafen

Current Time: Jul 23, 2014 at 1:57:14 PM

Latest Report: Jul 23, 2014 at 12:20 PM


Visibility: N/A

Pressure: 29.95 "Hg

Humidity: 69%

Dew point: 61 °F

Location of EferdingLocation

Historic Weather in Eferding — Graph

°F

Eferding temperature yesterday

Maximum temperature yesterday: 68 °F (at 4:20 PM)
Minimum temperature yesterday: 61 °F (at 12:50 AM)
Average temperature yesterday: 64 °F

Past Weeks' High & Low Weather Summary

 TemperatureHumidityPressure
High95 °F (Jul 20, 4:50 PM)100% (Jul 14, 4:20 AM)30.18 "Hg (Jul 14, 4:20 AM)
Low52 °F (Jul 10, 1:50 AM)23% (Jul 20, 4:50 PM)29.65 "Hg (Jul 8, 2:50 PM)
Average67 °F74%29.94 "Hg
* Reported Jul 8 12:20 PM — Jul 23 12:20 PM, Eferding, Weather by CustomWeather, © 2014

Note: Actual official high and low records may vary slightly from our data, if they occured in-between our weather recording intervals... More about our weather records

Advertising

Eferding weather history for previous 24 hours

 ConditionsComfort  
Time TempWeatherWind HumidityBarometerVisibility
12:20 PM
Jul 23
72 °FScattered clouds.6 mph69%29.95 "HgN/A
11:50 AM73 °FScattered clouds.7 mph69%29.95 "HgN/A
10:50 AM72 °FScattered clouds.2 mph69%29.98 "HgN/A
9:50 AM70 °FScattered clouds.2 mph73%29.98 "HgN/A
7:50 AM64 °FFog.3 mph88%29.98 "HgN/A
7:20 AM63 °FFog.3 mph94%29.98 "HgN/A
6:50 AM63 °FFog.5 mph94%29.98 "Hg4 mi
6:20 AM61 °FFog.2 mph100%29.98 "Hg2 mi
5:50 AM61 °FCool.3 mph94%29.98 "Hg1 mi
5:20 AM61 °FFog.1 mph100%29.98 "Hg0 mi
4:50 AM61 °FFog.2 mph100%29.98 "Hg0 mi
4:20 AM59 °FFog.3 mph100%29.95 "Hg1 mi
3:50 AM61 °FCool.5 mph100%29.95 "Hg1 mi
3:20 AM61 °FFog.5 mph100%29.95 "Hg2 mi
2:50 AM61 °FFog.5 mph100%29.95 "Hg0 mi
2:20 AM63 °FSleet. Overcast.5 mph94%29.95 "Hg2 mi
1:50 AM64 °FFog.6 mph94%29.95 "Hg3 mi
6:50 PM
Jul 22
68 °FBroken clouds.6 mph88%29.92 "HgN/A
6:20 PM68 °FBroken clouds.5 mph88%29.89 "HgN/A
5:50 PM68 °FBroken clouds.6 mph88%29.89 "HgN/A
5:20 PM68 °FPartly sunny.6 mph88%29.89 "HgN/A
4:50 PM68 °FDrizzle. Partly sunny.6 mph88%29.89 "HgN/A
4:20 PM68 °FLight rain. Partly sunny.7 mph88%29.89 "HgN/A
3:50 PM66 °FLight rain. Partly sunny.6 mph88%29.89 "HgN/A
3:20 PM66 °FLight rain. Partly sunny.7 mph88%29.89 "HgN/A
2:50 PM66 °FLight rain. Partly sunny.6 mph88%29.89 "HgN/A
2:20 PM66 °FLight rain. Broken clouds.6 mph88%29.89 "HgN/A
1:50 PM64 °FRain. Broken clouds.7 mph94%29.89 "HgN/A
1:20 PM64 °FRain. Partly sunny.6 mph94%29.92 "Hg5 mi
Weather by CustomWeather, © 2014

See weather overviewHow to use our weather pages